Regional Weather Roundup
Issued by NWS

Home | Current Version | Previous Version | Graphics & Text | Print | Product List | Glossary Off
Versions: 1 2 3 4 5 6 7 8 9 10 11 12 13 14 15 16 17 18 19 20 21 22 23 24 25 26 27 28 29 30 31 32 33 34 35 36 37 38 39 40 41 42 43 44 45 46 47 48 49 50

000
ASUS43 KMKX 170911
RWRWI

WISCONSIN REGIONAL WEATHER ROUNDUP
NATIONAL WEATHER SERVICE MILWAUKEE/SULLIVAN WI
300 AM CST TUE JAN 17 2017

NOTE: "FAIR" INDICATES FEW OR NO CLOUDS BELOW 12,000 FEET WITH NO
SIGNIFICANT WEATHER AND/OR OBSTRUCTIONS TO VISIBILITY.

WIZ001-002-006>008-014>016-023>028-171000-
NORTHWEST WISCONSIN

CITY           SKY/WX    TMP DP  RH WIND       PRES   REMARKS
SUPERIOR ARPT  MOCLDY    19  17  89 CALM      30.01S
ASHLAND        CLOUDY    23  19  85 CALM      30.00S
HAYWARD        CLOUDY    30  23  75 NE3       29.95F
SIREN          MIX PCPN  28  22  76 N5        29.97S WCI  23
CUMBERLAND     FLURRIES  32  32 100 NE6       29.93F WCI  26
RICE LAKE      LGT SNOW  32  32  98 N8        29.94F WCI  25
CHETEK         LGT SNOW  32  32 100 CALM      29.92F
LADYSMITH      LGT RAIN  33  31  92 NE8       29.93F WCI  25
EAU CLAIRE     LGT SNOW  33  32  96 N7        29.90S FOG     WCI  27
MENOMONIE      LGT SNOW  33  33 100 N5        29.91S WCI  28
NEW RICHMOND   LGT RAIN  33  32  99 NE6       29.93F WCI  27
OSCEOLA        MIX PCPN  32  32 100 N6        29.97S WCI  26
$$

WIZ003>005-009-010-017-018-171000-
NORTH CENTRAL WISCONSIN

CITY           SKY/WX    TMP DP  RH WIND       PRES   REMARKS
MANITOWISH WTR CLOUDY    25  25  97 CALM      29.94S
ARBOR VITAE    LGT SNOW  29  26  89 SE3       29.93F
WOODRUFF       LGT SNOW  29  26  89 SE3       29.93F
RHINELANDER    LGT SNOW  29  27  92 NE7       29.92F FOG     WCI  22
EAGLE RIVER    FLURRIES  26  24  91 CALM      29.93F
LAND O LAKES   CLOUDY    24  22  91 CALM      29.96S
PHILLIPS       LGT SNOW  29  27  95 NE3       29.93R
TOMAHAWK       LGT SNOW  30  29  94 NE3       29.92F
MEDFORD        MIX PCPN  32  31  96 NE6       29.87F WCI  26
MERRILL        LGT SNOW  32  32 100 NE7         N/A  WCI  26
$$

WIZ029-030-035-036-043>047-171000-
CENTRAL WISCONSIN

CITY           SKY/WX    TMP DP  RH WIND       PRES   REMARKS
WAUSAU         CLOUDY    33  32  96 NE3       29.87F FOG
MOSINEE        CLOUDY    32  32 100 NE5       29.88S WCI  27
MARSHFIELD     CLOUDY    33  31  92 NE10      29.85S FOG     WCI  25
STEVENS POINT  CLOUDY    31  31 100 NE8       29.87S WCI  24
WAUPACA        CLOUDY    34  33  93 CALM      29.87F FOG
WAUTOMA        MIX PCPN  33  32  96 NE8       29.85F WCI  26
WISC RAPIDS    NOT AVBL
CAMP DOUGLAS   CLOUDY    33  32  98 N3        29.85S FOG
$$

WIZ011>013-019>022-031-037>040-048>050-171000-
NORTHEAST WISCONSIN

CITY           SKY/WX    TMP DP  RH WIND       PRES   REMARKS
ANTIGO         MIX PCPN  31  31  99 NE13      29.88F WCI  21
SHAWANO        DRIZZLE   34  32  93 NE7       29.90F WCI  28
OCONTO         CLOUDY    32  31  94 NE6       29.92F WCI  26
STURGEON BAY   LGT RAIN  34  33  96 NE10      29.91F FOG     WCI  26
GREEN BAY      CLOUDY    35  34  96 NE15      29.88F FOG     WCI  25
MANITOWOC      MIX PCPN  36  35  96 NE6       29.86F FOG     WCI  31
APPLETON       CLOUDY    32  32 100 NE8       29.84F FOG     WCI  25
CLINTONVILLE   MIX PCPN  32  32 100 NE7       29.89F WCI  26
OSHKOSH        CLOUDY    34  32  92 NE14      29.84F FOG     WCI  25
$$

WIZ032>034-041-042-053>061-171000-
SOUTHWEST WISCONSIN

CITY           SKY/WX    TMP DP  RH WIND       PRES   REMARKS
LA CROSSE      CLOUDY    36  33  89 NW7       29.87S WCI  30
SPARTA         CLOUDY    32  32 100 NE3       29.87S FOG
VIROQUA        CLOUDY    32  32 100 CALM      29.83S VSB 3/4
BOSCOBEL       FOG       34  33  96 E5        29.84S VSB 1   WCI  30
PRAIRIE DU CHI CLOUDY    33  32  96 CALM      29.84S FOG
PLATTEVILLE    CLOUDY    34  34 100 N5        29.82R WCI  30
$$

WIZ056-057-062-063-064-067-068-171000-
SOUTH CENTRAL WISCONSIN

CITY           SKY/WX    TMP DP  RH WIND       PRES   REMARKS
REEDSBURG      CLOUDY    32  32 100 CALM      29.83F FOG
BARABOO/DELLS  FOG       32  32 100 E8        29.82S VSB 3/4 WCI  25
LONE ROCK      CLOUDY    35  33  92 CALM      29.84R
MINERAL POINT  FOG       34  34 100 NE8       29.80S VSB 1   WCI  27
MADISON        MIX PCPN  34  33  96 N6        29.81S FOG     WCI  29
MIDDLETON      CLOUDY    35  35 100 N6        29.82S WCI  30
WATERTOWN      CLOUDY    34  34 100 NE5       29.79F FOG     WCI  30
MONROE         FOG       34  34 100 N8        29.78F VSB 1/4 WCI  27
JANESVILLE     CLOUDY    36  36 100 N5        29.78F FOG     WCI  32
$$

WIZ051-052-058>065-066-070>072-171000-
SOUTHEAST WISCONSIN

CITY           SKY/WX    TMP DP  RH WIND       PRES   REMARKS
MILWAUKEE      LGT RAIN  38  36  92 E7        29.79F VSB 1   WCI  33
WAUKESHA       LGT RAIN  32  32 100 E3        29.81S VSB 1/4
MILWAUKEE/TIMM FOG       36  32  87 NE5       29.81F VSB 1/2 WCI  32
RACINE         RAIN      37  36  96 NE7       29.78F FOG     WCI  32
KENOSHA        RAIN      37  36  96 NE7       29.77F FOG     WCI  32
FOND DU LAC    LGT RAIN  34  32  92 NE10      29.83F FOG     WCI  26
SHEBOYGAN      FOG       35  34  96 NE7       29.83F VSB 3/4 WCI  29
WEST BEND      DRIZZLE   34  34 100 NE8       29.81F WCI  27
JUNEAU         DRZL/FOG  33  33  99 NE7       29.82F VSB 1/2 WCI  27
$$

LSZ147-162-171000-
LAKE SUPERIOR

STATION/POSITION TIME  TEMP    WIND        PRES    WAVE
                       AIR SEA DIR/SP/G            HT/PER
                 (UTC) (F)     (DEG/KT/KT) (MB)    (FT/S)
DEVILS ISLAND    0900   33      40/  5/  5 1016.8F
PORT WING        0840   21     140/  2/  3 1015.9F
SAXON HARBOR     0830   26     190/  2/  3 1015.6S
$$

LMZ867-665-643>646-171000-
LAKE MICHIGAN

STATION/POSITION TIME  TEMP    WIND        PRES    WAVE
                       AIR SEA DIR/SP/G            HT/PER
                 (UTC) (F)     (DEG/KT/KT) (MB)    (FT/S)
NORTHPORT PIER   0904   35      40/ 10/ 14 1013.9
SISTER BAY       0850   33      10/  6/ 10   N/A
KEWAUNEE LAKESHO 0848   35      30/ 10/ 12 1011.5F
SHEBOYGAN LAKESH 0900   36      80/  9/ 10 1010.7F
PORT WASHINGTON  0840   36      60/  6/  8 1010.8F
MILWAUKEE LAKESH 0850   36      90/  4/  5   N/A
KENOSHA   LAKESH 0900   36     360/  8/  9 1008.1
$$

TC  - TEMPERATURE IN CELSIUS
VSB - VISIBILITY IN STATUTE MILES
WCI - WIND CHILL INDEX
HX  - HEAT INDEX




USA.gov is the U.S. government's official web portal to all federal, state and local government web resources and services.